Reflectivity
-20 -20 -20 -20 -20 -20 -20 -20 -20 -20 -20 -20 -20 -20 -20 -9 -20 -12 -0 -20 -20 -19 -0 -20 -20 -8 -20 -3 -20 4 10 11 9 -20 -20 -20 -20 -20 -20 -20 -20 -20 -20
-20 -20 -20 -20 -20 -20 -20 -20 -20 -20 -20 -20 -20 -20 -20 -20 -20 -6 -13 -20 -20 -20 -8 -20 -18 6 -15 5 7 4 10 9 8 -19 -20 -20 -20 -20 -20 -20 -20 -20 -20
-20 -20 -20 -20 -20 -20 -20 -20 -20 -20 -20 -20 -20 -20 -11 -7 -18 -17 -20 -20 -20 -20 -20 -6 11 -19 4 -13 -6 11 5 4 5 -16 -15 -20 -20 -20 -20 -11 -14 -20 -20
-20 -20 -20 -20 -20 -20 -20 -20 -20 -20 -20 -20 -20 -20 -20 -20 -10 -20 -20 -20 -20 -20 -20 -3 10 3 5 7 13 -9 5 0 -2 -19 -7 -20 -12 -10 -3 -8 -20 -20 -20
-20 -20 -20 -20 -20 -20 -20 -20 -20 -20 -20 -20 -20 -20 -20 -20 -20 -20 -20 -20 -20 -20 -20 10 0 4 9 5 7 -13 -19 5 7 5 -15 -18 -16 -20 -20 -12 8 -2 -20
-20 -20 -20 -20 -20 -20 -20 -20 -20 -20 -20 -20 -20 -20 -20 -20 -20 -20 -20 -20 -20 -20 6 -15 -20 4 4 5 -20 -10 -5 -4 -3 9 -18 -18 -12 -20 -20 -4 -10 -20 -20
-20 -20 -20 -20 -20 -20 -20 -20 -20 -20 -20 -20 -20 -20 -20 -20 -20 -20 -20 -20 -20 -20 -18 -20 -15 2 9 -19 -20 -20 -20 3 2 2 6 -20 -9 -20 -1 6 4 -12 -20
-20 -20 -20 -20 -20 -20 -20 -20 -20 -20 -20 -20 -20 -20 -20 -20 -20 -20 -20 -20 -20 -20 -20 -20 -20 7 1 1 -15 -20 -20 -20 -4 -5 -9 -4 4 4 11 9 2 -13 -20
-20 -20 -20 -20 -20 -20 -20 -20 -20 -20 -20 -20 -20 -20 -20 -20 -20 -20 -20 -20 -20 -20 -20 -20 -13 -4 -20 2 1 -6 -19 -20 -18 -13 -2 -0 11 7 9 13 -15 -8 -20
-20 -20 -20 -20 -20 -20 -20 -20 -20 -20 -20 -20 -20 -20 -20 -20 -20 -19 -1 -19 4 -6 -20 -20 -10 -0 1 9 5 -1 6 -7 -19 -18 -20 -20 3 9 8 9 15 15 -19
-20 -20 -20 -20 -20 -20 -20 -20 -20 -20 -20 -20 -20 -20 -20 -20 -20 -3 -3 -8 3 6 -2 -6 -4 -20 7 7 6 10 1 2 -3 -20 -20 -20 -1 12 11 13 16 15 7
-20 -20 -20 -20 -20 -20 -20 -20 -20 -20 -20 -20 -20 -20 -20 -20 -20 -4 -5 1 3 5 3 6 -20 5 8 2 -9 5 6 -13 -12 -20 -8 -20 4 11 15 16 15 13 20
-20 -20 -20 -20 -20 -20 -20 -20 -20 -20 -20 -20 -20 -20 -20 -20 -20 -19 -20 2 3 -1 4 -20 5 4 1 -19 -1 2 -20 4 -5 -17 -20 -20 8 16 16 17 12 13 15
-20 -20 -20 -20 -20 -20 -20 -17 -7 -2 -20 -20 -20 -20 -20 -20 -20 -20 -20 -17 -17 -20 -3 -20 4 4 -20 -17 -18 -2 -3 0 0 -2 -17 -18 4 22 22 23 24 23 23
-20 -18 -20 -2 -20 -4 -1 -19 -12 -20 -20 -20 -13 -20 -13 -2 -15 -1 1 -6 -12 -4 -0 -2 -20 -13 -17 -20 -18 -3 -6 -2 0 -5 -5 3 1 20 22 24 24 24 24
-20 -20 -20 -3 -5 -8 -4 3 -20 -20 -20 -20 -20 -10 -11 -11 -2 -0 6 -0 3 2 -19 -7 -5 -4 -1 2 -1 0 -19 -11 0 4 -3 -5 -6 11 16 16 17 19 19
-20 -20 -20 -6 -3 -5 -5 -3 -12 -20 -20 -1 1 -11 -18 -1 -16 -1 4 2 2 -4 -6 -11 -4 -5 -1 4 2 1 -0 -2 -2 0 2 -19 -0 1 12 17 17 22 24
-20 -20 -20 -6 -3 -6 -4 -0 -8 -2 -8 -20 -4 -1 -20 -20 -20 4 3 -17 -15 -20 -13 -5 -1 -2 -1 2 2 -0 -20 -4 -20 3 -20 -20 -20 -15 1 12 16 17 25
-19 -7 -20 -2 -3 -20 -15 -5 -4 -2 -7 -12 -14 -17 -20 -20 -20 2 2 -8 0 -5 -4 -8 -0 -3 -3 4 -3 -5 -6 -1 -17 -19 -20 -20 -20 -20 -10 10 15 13 15
-20 -20 -20 -11 -3 -3 -4 -20 -4 -20 -20 -19 -20 -18 -20 -20 -20 0 -20 1 -14 -15 -4 -7 -2 2 5 4 -7 -13 -8 -1 1 -20 -20 -20 -20 -20 -20 -19 7 12 1
-1 -20 -20 -20 -3 -20 -10 -19 -18 -0 -20 -20 -20 -20 -20 -20 -4 -13 -20 5 -2 -5 -10 1 -20 1 -4 5 -12 -20 -3 -3 -20 -20 -20 -20 -20 -20 -20 -19 -19 -6 8
-20 -20 -20 -20 -20 -7 -16 -20 -3 -8 -20 -20 -20 -14 -20 -17 3 -3 3 4 -0 -16 -7 -12 -2 -4 4 -0 -1 -19 4 -20 -20 -20 -20 -20 -20 -20 -20 -20 -20 -20 -2
-20 -20 -20 -20 -20 -17 -20 0 -20 -10 -3 -20 -17 -20 -20 -17 -20 -3 -2 7 -5 -20 -2 -20 -20 1 3 -1 -17 -16 -1 -20 -1 -20 -20 -20 -20 -20 -20 -20 -20 -20 -20
-20 -20 -20 -20 -5 -20 -20 6 -20 -8 -17 -9 -20 -20 -0 -20 -4 -20 -20 8 -20 -20 -20 -20 -20 6 -20 3 -20 1 -20 -20 2 -6 -18 -20 -20 -20 -7 -20 -17 -20 -20
-20 -12 -5 -2 1 1 1 5 5 1 3 -5 -0 3 -20 -8 -0 -20 -18 -17 -19 -7 -20 -20 -5 -18 -20 -6 4 -20 -20 -20 -20 -20 -20 -20 -20 -1 -20 -19 -20 -20 -20
-11 -4 -2 -4 -5 0 5 -1 2 2 -11 -7 -14 -15 -20 -20 -20 -13 -19 -11 -20 -20 -20 -15 -20 -20 -14 -1 5 -20 -20 -20 -20 -20 -20 -20 -20 -20 -20 -16 -20 -20 -19
Wind_Speed
5 4 3 3 3 3 3 4 5 5 6 6 6 7 9 9 10 9 8 11 11 12 12 12 13 13 9 10 10 10 10 11 17 14 14 16 20 20 20 18 18 18 16
5 3 3 3 3 3 4 4 4 5 5 5 6 8 10 9 10 9 8 10 12 13 14 14 13 10 13 11 10 13 12 12 14 23 17 16 19 20 20 22 17 15 18
4 5 4 3 3 3 4 4 4 5 5 5 4 4 6 8 9 7 9 10 12 13 14 14 12 12 12 11 12 11 10 11 13 16 17 14 15 15 18 18 17 18 17
4 3 5 3 1 2 3 4 4 4 5 4 4 3 4 7 7 8 9 11 13 13 15 15 11 12 13 11 11 12 12 13 15 15 15 15 14 14 14 15 16 13 17
4 4 4 3 0 2 2 2 3 4 4 4 5 6 4 7 5 5 7 10 13 14 14 12 11 17 20 15 10 12 15 13 13 15 15 14 14 13 15 13 15 16 19
5 4 3 2 1 3 2 3 4 4 5 4 4 5 5 4 8 12 13 10 12 14 13 13 13 18 13 17 19 25 22 16 16 13 14 15 15 15 14 13 14 14 17
5 4 3 2 1 3 3 4 4 4 5 5 5 6 6 5 12 16 19 9 12 11 13 14 14 11 13 9 17 23 21 24 19 16 17 17 20 18 18 18 14 15 18
5 4 4 2 2 3 3 4 4 4 5 5 5 6 6 6 15 17 20 11 12 12 13 14 14 15 10 18 17 16 15 13 12 11 15 17 17 18 17 14 16 17 15
4 3 3 2 2 3 5 4 4 4 4 5 5 6 7 6 17 19 17 12 12 14 15 14 16 13 23 28 17 16 16 13 15 25 27 28 28 29 23 14 10 12 14
4 3 3 2 3 4 4 4 4 5 6 5 7 7 11 10 17 20 18 10 12 12 14 15 21 21 27 29 17 15 14 15 17 16 15 17 18 16 22 13 11 11 11
5 3 3 3 3 4 4 4 6 5 5 6 7 7 9 12 12 20 23 12 11 12 12 12 11 28 30 25 26 12 16 20 15 13 13 12 13 12 11 12 13 11 10
5 4 4 4 4 4 4 6 5 7 6 7 7 7 7 10 17 17 24 23 22 12 13 11 14 28 25 26 19 27 27 17 11 11 12 12 12 13 14 14 16 14 11
5 4 5 5 3 5 4 5 4 5 5 6 6 6 7 7 7 19 22 24 21 13 11 20 27 24 24 16 24 25 17 11 11 11 12 12 12 14 16 14 14 14 13
5 3 3 4 3 3 2 3 2 2 2 4 4 4 5 7 7 9 9 9 15 13 12 12 12 14 13 13 12 13 11 11 12 12 12 12 11 12 13 13 14 12 10
6 3 1 2 1 2 2 2 2 3 1 1 2 3 5 6 7 17 16 10 11 11 13 9 9 9 11 11 10 12 12 12 12 12 12 12 12 11 10 11 10 10 9
7 3 2 1 1 2 2 2 3 3 5 4 4 4 2 11 20 21 22 22 22 21 9 9 10 10 11 11 12 12 11 14 12 12 11 12 13 13 13 12 10 11 12
6 2 4 1 2 2 2 2 2 4 7 7 3 8 9 13 20 21 20 21 19 17 7 8 9 10 11 11 11 12 12 12 14 12 12 13 14 15 16 14 14 12 11
5 2 2 2 2 2 1 1 1 2 2 2 6 9 7 15 21 20 19 15 8 9 8 9 9 10 10 10 11 12 12 12 13 12 12 12 13 14 14 14 14 15 13
2 3 2 1 2 1 3 1 1 2 2 2 2 3 4 14 18 17 17 5 7 8 8 8 9 9 10 9 10 11 12 11 13 12 13 13 13 13 14 14 15 18 15
3 5 3 3 2 1 1 1 2 2 2 3 3 2 2 5 6 5 6 6 6 7 8 9 9 9 9 9 10 11 11 11 12 12 13 13 12 13 13 14 12 13 12
4 6 2 3 1 1 1 2 2 2 2 3 3 2 1 2 6 4 5 5 6 6 7 8 9 9 9 9 10 11 11 11 11 12 13 13 14 13 13 12 12 12 12
2 1 2 0 0 1 2 1 4 2 3 3 3 3 6 3 5 5 6 5 5 5 6 7 8 9 9 9 10 11 10 11 12 12 13 14 14 14 13 12 12 11 11
2 2 2 1 1 1 2 2 2 4 3 3 3 4 4 4 4 5 6 6 5 6 5 6 9 9 8 9 9 11 9 11 12 12 13 14 13 13 13 13 13 12 12
3 2 3 1 1 0 2 3 3 5 4 3 4 3 4 4 5 4 6 6 4 6 4 6 9 10 10 9 9 8 9 11 11 11 16 14 13 14 12 12 12 14 12
3 2 2 2 1 2 2 4 4 4 5 4 4 4 4 5 6 5 7 6 6 6 7 8 8 12 12 17 13 12 13 16 15 17 11 15 15 16 14 12 14 13 14
2 3 2 1 2 3 3 3 4 5 5 5 4 4 3 4 5 6 7 7 8 8 9 8 11 14 17 12 12 15 15 18 16 22 12 12 12 12 12 14 18 13 13
Wind_Direction
118 105 82 57 30 25 16 10 30 331 8 3 354 4 358 345 343 336 343 344 349 328 320 318 313 314 308 310 303 299 296 297 295 303 305 307 306 304 305 300 295 292 285
124 100 97 69 30 15 21 7 11 352 357 353 16 8 341 346 330 335 359 353 336 325 322 313 312 316 311 308 309 308 305 304 302 303 307 310 303 304 299 301 298 295 292
133 137 106 84 34 7 17 1 348 357 350 8 29 7 352 335 323 5 1 343 332 324 315 311 309 317 315 318 311 311 318 310 308 303 304 301 301 303 304 301 301 300 292
134 127 115 92 36 30 22 359 331 357 341 349 348 48 9 320 22 14 353 339 330 319 313 307 310 318 315 317 323 322 321 316 306 298 299 302 301 307 306 307 304 301 302
147 147 115 104 334 29 24 326 344 352 351 339 342 72 348 326 38 13 354 340 327 320 315 322 325 318 323 326 326 328 319 308 305 302 299 306 306 309 307 308 301 303 300
154 138 123 129 18 47 343 346 2 355 351 342 354 69 355 23 38 13 2 341 329 323 325 329 327 323 323 330 331 325 317 313 307 307 309 301 304 307 303 301 301 302 304
151 144 132 85 17 26 4 6 9 355 338 347 12 27 355 53 38 15 1 343 329 325 329 328 324 325 328 334 324 321 310 304 306 301 301 304 302 300 298 299 296 288 287
145 146 121 69 16 16 8 17 349 356 345 9 352 17 344 25 36 13 0 346 332 331 332 324 320 322 329 330 327 315 307 303 298 305 301 297 296 296 291 293 291 285 284
143 129 88 67 20 3 29 359 359 352 353 1 15 5 0 359 28 10 2 346 336 332 327 322 322 328 330 327 321 313 308 307 312 313 313 312 309 308 305 299 297 299 300
134 108 102 78 34 32 14 342 15 359 12 5 10 2 0 13 7 7 0 344 335 330 325 325 323 335 326 322 325 317 314 323 322 318 318 316 313 309 308 301 298 293 300
137 125 104 54 38 42 7 13 23 13 2 18 9 1 4 7 3 359 355 343 335 330 327 324 329 325 321 332 334 328 329 331 322 321 320 317 314 319 314 306 299 295 295
133 127 95 66 15 38 356 39 18 19 12 11 6 2 3 360 353 355 350 338 336 332 323 323 319 321 338 340 339 337 340 332 329 325 324 326 322 325 317 312 308 303 288
113 102 80 72 11 41 12 40 21 28 22 5 358 2 349 346 350 349 335 334 335 330 320 326 325 337 342 337 337 343 344 337 334 329 327 324 322 316 312 314 313 309 308
110 78 74 95 348 47 360 47 28 47 37 2 353 354 336 340 344 332 326 327 328 327 327 319 328 339 337 332 338 342 340 341 334 330 324 322 325 325 326 326 326 329 321
132 150 132 130 68 11 43 61 31 91 100 344 345 335 330 338 331 336 331 335 332 333 333 330 339 343 340 340 343 343 340 339 339 335 332 329 332 331 323 317 321 315 323
150 162 110 93 76 70 16 84 158 192 209 247 300 304 339 344 343 333 336 344 341 348 345 341 342 343 341 340 341 342 340 339 339 336 337 333 331 332 329 328 331 336 352
76 145 143 146 54 44 22 2 350 336 348 351 342 347 11 352 345 332 343 347 347 353 344 342 341 340 338 341 340 341 337 337 336 336 342 339 333 333 334 335 339 347 349
102 100 324 73 83 39 329 317 308 324 322 322 343 344 16 359 343 335 348 353 342 349 345 341 338 338 336 341 340 338 336 334 337 338 344 341 338 334 333 338 342 342 343
193 102 327 161 137 220 259 309 308 320 322 311 322 348 26 358 338 340 352 344 341 343 341 339 335 337 334 337 339 334 332 336 335 343 340 339 339 338 333 335 337 341 340
164 138 236 292 201 207 344 337 324 330 319 320 328 349 6 342 329 338 345 342 342 343 339 335 335 333 333 336 339 335 330 340 342 343 337 336 337 332 328 328 334 334 339
167 167 173 240 265 18 336 17 311 306 310 319 322 346 303 316 315 332 335 335 337 338 337 336 331 332 333 337 338 334 329 342 345 337 336 334 332 329 329 324 332 333 334
131 143 186 276 297 308 44 320 295 323 313 319 321 330 335 326 329 331 329 329 333 335 334 335 328 329 329 339 336 331 333 346 339 339 334 333 327 326 323 328 331 336 335
192 162 275 251 75 14 299 303 332 306 313 313 322 323 328 322 325 326 326 329 338 334 336 343 329 321 333 333 332 324 349 345 335 334 332 328 325 324 321 330 333 336 332
155 175 242 255 225 80 266 300 295 293 306 308 312 314 320 319 319 325 329 333 332 329 350 338 320 323 331 331 326 334 343 337 334 329 333 325 320 319 324 328 331 327 319
132 191 237 247 272 291 295 294 304 314 314 312 311 316 320 322 329 334 330 337 329 350 339 328 330 329 329 323 322 345 337 335 332 324 330 323 316 323 328 326 324 320 316
182 214 234 268 287 284 297 300 305 308 306 307 303 300 311 329 335 337 335 342 1 337 338 335 322 321 318 321 328 341 340 333 328 324 328 323 323 329 328 327 322 321 319